Location: Chandrammap?lem
(16.9200°N, 81.0051°E)
Time: 10:24:00
(UTC+00:00)

Cosmos 2263 Rocket - Pass Details

Date: 29 May 2024
Orbit: 824 x 846 km, 71.0° (Epoch: 14 June)

Event Time Altitude Azimuth Distance (km) Brightness Sun altitude
Exits shadow 22:33:52 33° 214° (SW) 1,373 2.8 -19.6°
Maximum altitude 22:36:24 67° 287° (WNW) 900 2.1 -19.1°
Drops below altitude 10° 22:41:58 10° 10° (N) 2,437 5.1 -17.9°
Sets 22:44:25 0° 13° (NNE) 3,369 6.0 -17.4°
